Location: Katowice
(50.2611°N, 19.0242°E)
Time: 10:12:37
(UTC+02:00)

Explorer 7 - Pass Details

Date: 31 August 2019
Orbit: 485 x 680 km, 50.3° (Epoch: 22 September)

Event Time Altitude Azimuth Distance (km) Brightness Sun altitude
Rises 07:11:46 0° 223° (SW) 3,023 10.2 11.1°
Reaches altitude 10° 07:14:15 10° 216° (SW) 2,113 9.5 11.5°
Maximum altitude 07:18:46 38° 149° (SSE) 1,029 8.8 12.2°
Drops below altitude 10° 07:23:13 10° 82° (E) 2,081 12.1 12.9°
Sets 07:25:39 0° 74° (ENE) 2,972 12.1 13.3°
